Regional Weather Roundup
Issued by NWS Jackson, KY

Home | Current Version | Previous Version | Graphics & Text | Print | Product List | Glossary On
Versions: 1 2 3 4 5 6 7 8 9 10 11 12 13 14 15 16 17 18 19 20 21 22 23 24 25 26 27 28 29 30 31 32 33 34 35 36 37 38 39 40 41 42 43 44 45 46 47 48 49 50
000
ASUS43 KJKL 200119
RWRJKL

EAST KENTUCKY HOURLY WEATHER ROUNDUP
NATIONAL WEATHER SERVICE JACKSON KY
900 PM EDT FRI SEP 19 2014

NOTE: "FAIR" INDICATES FEW OR NO CLOUDS BELOW 12,000 FEET WITH
NO SIGNIFICANT WEATHER AND/OR OBSTRUCTIONS TO VISIBILITY.

* THESE REPORTS ARE NOT UNDER NWS QUALITY CONTROL AND MAY NOT
  REPORT WEATHER SUCH AS PRECIPITATION AND FOG.

KYZ079-080-083-085-087-088-110-112-115-119-120-200200
...EASTERN KENTUCKY...

CITY           SKY/WX    TMP DP  RH WIND       PRES   REMARKS
JACKSON        CLEAR     70  62  76 VRB3      30.11S
LONDON         CLEAR     68  61  78 CALM      30.10S
SOMERSET*      CLEAR     66  61  82 CALM      30.10R
MONTICELLO*    CLEAR     63  61  93 CALM      30.10R
MIDDLESBORO*   CLEAR     66  61  83 CALM      30.12R
HARLAN APT*    MOCLDY    66  61  82 MISG      30.14R
PIKEVILLE APT* PTCLDY    70  63  78 SE9       30.13R
BIG SANDY*     MOCLDY    68  65  90 CALM      30.12R
MOREHEAD APT*  CLEAR     68  59  73 CALM      30.12S
ASHLAND*       CLEAR     64  59  82 CALM      30.09R
$$

KYZ035-036-041-042-044-050-067-078-099-200200
...CENTRAL KENTUCKY...

CITY           SKY/WX    TMP DP  RH WIND       PRES   REMARKS
MT STERLING*   CLEAR     64  59  82 CALM      30.12R
FLEMING/MASON* CLEAR     64  57  77 SE5       30.10F
DANVILLE*      CLEAR     63  59  88 CALM      30.10R
RICHMOND*      CLEAR     66  59  77 CALM      30.08F
LEXINGTON      CLEAR     68  58  70 CALM      30.09R
FRANKFORT      CLEAR     63  56  78 CALM      30.08R
$$

KYZ091>093-OHZ055-061-077-WVZ005-015-034-035-042-200200
...SOUTHERN OHIO/WEST VIRGINIA...

CITY           SKY/WX    TMP DP  RH WIND       PRES   REMARKS
COVINGTON      PTCLDY    64  50  60 CALM      30.09R
COLUMBUS       PTCLDY    67  51  56 E5        30.09F
DAYTON         PTCLDY    65  47  52 SE5       30.10S
WILMINGTON     CLEAR     59  50  72 CALM      30.10S
HUNTINGTON     CLEAR     66  63  90 CALM      30.09S
CHARLESTON     PTCLDY    67  61  81 NE5       30.13R
PINEVILLE*     PTCLDY    65  62  88 MISG      30.23S
BECKLEY        CLEAR     60  54  80 SE10G22   30.22S
BLUEFIELD      CLOUDY    62  55  77 SE8       30.25R
$$

VAZ002-007-008-TNZ017-027-036-066-071-200200
...SOUTHWEST VIRGINIA/EAST TENNESSEE...

CITY           SKY/WX    TMP DP  RH WIND       PRES   REMARKS
WISE*          MOCLDY    64  55  72 S9        30.21S
JONESVILLE*    CLOUDY    72  63  73 CALM      30.16R
ABINGDON*      PTCLDY    65  58  77 CALM      30.21R
BRISTOL        PTCLDY    69  54  58 E3        30.18R
KNOXVILLE      MOCLDY    72  66  81 CALM      30.09R
OAK RIDGE      CLOUDY    75  66  73 E3        30.11R
CROSSVILLE     CLEAR     68  62  81 CALM      30.13R
NASHVILLE      CLEAR     77  64  64 E3        30.03R
$$

...KEY TO REMARKS...
VSB - VISIBILITY IN MILES
WCI - WIND CHILL INDEX
HX  - HEAT INDEX

$$


USA.gov is the U.S. government's official web portal to all federal, state and local government web resources and services.